Time,TemperatureF,DewpointF,PressureIn,WindDirection,WindDirectionDegrees,WindSpeedMPH,WindSpeedGustMPH,Humidity,HourlyPrecipIn,Conditions,Clouds,dailyrainin,SoftwareType,DateUTC
2013-05-11 00:09:00,45.6,45.0,29.94,NNW,342,0.0,0.0,96,0.00,,,0.00,weatherlink.com 1.10,2013-05-11 04:09:00,
2013-05-11 00:24:00,45.6,45.0,29.94,NNE,30,0.0,1.0,96,0.00,,,0.00,weatherlink.com 1.10,2013-05-11 04:24:00,
2013-05-11 00:39:00,45.6,45.0,29.94,NE,42,0.0,1.0,96,0.00,,,0.00,weatherlink.com 1.10,2013-05-11 04:39:00,
2013-05-11 00:54:00,45.6,45.0,29.94,NE,34,0.0,1.0,96,0.00,,,0.00,weatherlink.com 1.10,2013-05-11 04:54:00,
2013-05-11 01:09:00,45.5,45.0,29.93,NE,34,0.0,0.0,96,0.00,,,0.00,weatherlink.com 1.10,2013-05-11 05:09:00,
2013-05-11 01:24:00,45.5,45.0,29.93,NE,34,0.0,0.0,96,0.00,,,0.00,weatherlink.com 1.10,2013-05-11 05:24:00,
2013-05-11 01:39:00,45.4,44.0,29.93,NE,40,0.0,0.0,95,0.00,,,0.00,weatherlink.com 1.10,2013-05-11 05:39:00,
2013-05-11 01:54:00,45.3,44.0,29.93,North,353,0.0,1.0,95,0.00,,,0.00,weatherlink.com 1.10,2013-05-11 05:54:00,
2013-05-11 02:09:00,45.2,44.0,29.93,North,353,0.0,0.0,95,0.00,,,0.00,weatherlink.com 1.10,2013-05-11 06:09:00,
2013-05-11 02:24:00,45.3,44.0,29.93,North,353,0.0,0.0,95,0.00,,,0.00,weatherlink.com 1.10,2013-05-11 06:24:00,
2013-05-11 02:39:00,45.3,44.0,29.93,North,353,0.0,0.0,95,0.00,,,0.00,weatherlink.com 1.10,2013-05-11 06:39:00,
2013-05-11 02:54:00,45.3,44.0,29.93,NNW,347,0.0,1.0,94,0.00,,,0.00,weatherlink.com 1.10,2013-05-11 06:54:00,
2013-05-11 03:09:00,45.3,44.0,29.93,NNW,345,0.0,1.0,95,0.00,,,0.00,weatherlink.com 1.10,2013-05-11 07:09:00,
2013-05-11 03:24:00,45.2,44.0,29.94,NNW,338,0.0,1.0,94,0.00,,,0.00,weatherlink.com 1.10,2013-05-11 07:24:00,
2013-05-11 03:39:00,45.2,44.0,29.95,NNW,337,0.0,1.0,94,0.00,,,0.00,weatherlink.com 1.10,2013-05-11 07:39:00,
2013-05-11 03:54:00,45.2,44.0,29.94,NW,324,0.0,1.0,94,0.00,,,0.00,weatherlink.com 1.10,2013-05-11 07:54:00,
2013-05-11 04:09:00,45.3,44.0,29.94,NNW,348,0.0,2.0,94,0.00,,,0.00,weatherlink.com 1.10,2013-05-11 08:09:00,
2013-05-11 04:24:00,45.4,44.0,29.94,NNW,348,0.0,1.0,95,0.00,,,0.00,weatherlink.com 1.10,2013-05-11 08:24:00,
2013-05-11 04:39:00,45.5,44.0,29.94,NNW,344,0.0,0.0,95,0.00,,,0.00,weatherlink.com 1.10,2013-05-11 08:39:00,
2013-05-11 04:54:00,45.6,44.0,29.94,NNW,330,0.0,1.0,95,0.00,,,0.00,weatherlink.com 1.10,2013-05-11 08:54:00,
2013-05-11 05:09:00,45.6,44.0,29.94,NNW,329,0.0,1.0,95,0.00,,,0.00,weatherlink.com 1.10,2013-05-11 09:09:00,
2013-05-11 05:24:00,45.7,44.0,29.94,NNW,329,0.0,1.0,95,0.00,,,0.00,weatherlink.com 1.10,2013-05-11 09:24:00,
2013-05-11 05:39:00,45.8,45.0,29.93,WSW,257,0.0,1.0,95,0.00,,,0.00,weatherlink.com 1.10,2013-05-11 09:39:00,
2013-05-11 05:54:00,45.8,45.0,29.93,WSW,257,0.0,0.0,95,0.00,,,0.00,weatherlink.com 1.10,2013-05-11 09:54:00,
2013-05-11 06:10:00,45.9,45.0,29.94,NNW,348,0.0,1.0,95,0.00,,,0.00,weatherlink.com 1.10,2013-05-11 10:10:00,
2013-05-11 06:25:00,45.9,45.0,29.93,West,259,0.0,3.0,95,0.00,,,0.00,weatherlink.com 1.10,2013-05-11 10:25:00,
2013-05-11 06:40:00,45.7,44.0,29.93,NNW,328,0.0,2.0,95,0.00,,,0.00,weatherlink.com 1.10,2013-05-11 10:40:00,
2013-05-11 06:55:00,45.5,45.0,29.94,West,263,0.0,1.0,96,0.00,,,0.00,weatherlink.com 1.10,2013-05-11 10:55:00,
2013-05-11 07:10:00,45.2,44.0,29.94,NW,321,1.0,3.0,96,0.00,,,0.00,weatherlink.com 1.10,2013-05-11 11:10:00,
2013-05-11 07:25:00,44.9,44.0,29.93,NNW,328,0.0,2.0,96,0.00,,,0.00,weatherlink.com 1.10,2013-05-11 11:25:00,
2013-05-11 07:40:00,44.6,44.0,29.94,WSW,243,1.0,4.0,96,0.00,,,0.00,weatherlink.com 1.10,2013-05-11 11:40:00,
2013-05-11 07:55:00,44.4,43.0,29.93,NNW,328,0.0,3.0,96,0.00,,,0.00,weatherlink.com 1.10,2013-05-11 11:55:00,
2013-05-11 08:10:00,44.2,43.0,29.93,West,274,1.0,3.0,96,0.00,,,0.00,weatherlink.com 1.10,2013-05-11 12:10:00,
2013-05-11 08:25:00,44.2,43.0,29.93,WNW,303,2.0,4.0,95,0.00,,,0.00,weatherlink.com 1.10,2013-05-11 12:25:00,
2013-05-11 08:40:00,44.4,43.0,29.92,SE,132,3.0,3.0,96,0.00,,,0.00,weatherlink.com 1.10,2013-05-11 12:40:00,
2013-05-11 08:55:00,44.3,43.0,29.92,NW,326,1.0,5.0,96,0.00,,,0.00,weatherlink.com 1.10,2013-05-11 12:55:00,
2013-05-11 09:10:00,44.6,43.0,29.92,WNW,294,0.0,3.0,95,0.00,,,0.00,weatherlink.com 1.10,2013-05-11 13:10:00,
2013-05-11 09:25:00,45.1,44.0,29.91,WSW,242,2.0,2.0,95,0.00,,,0.00,weatherlink.com 1.10,2013-05-11 13:25:00,
2013-05-11 09:40:00,45.4,44.0,29.91,SE,136,1.0,2.0,95,0.00,,,0.00,weatherlink.com 1.10,2013-05-11 13:40:00,
2013-05-11 09:55:00,45.6,44.0,29.92,NW,307,0.0,2.0,93,0.00,,,0.00,weatherlink.com 1.10,2013-05-11 13:55:00,
2013-05-11 10:10:00,46.0,44.0,29.92,NNW,330,1.0,4.0,94,0.00,,,0.00,weatherlink.com 1.10,2013-05-11 14:10:00,
2013-05-11 10:25:00,46.1,45.0,29.92,NW,323,0.0,2.0,94,0.00,,,0.00,weatherlink.com 1.10,2013-05-11 14:25:00,
2013-05-11 10:40:00,46.1,44.0,29.91,West,262,0.0,3.0,93,0.00,,,0.00,weatherlink.com 1.10,2013-05-11 14:40:00,
2013-05-11 10:55:00,46.3,44.0,29.90,SW,224,1.0,6.0,93,0.00,,,0.00,weatherlink.com 1.10,2013-05-11 14:55:00,
2013-05-11 11:10:00,46.8,45.0,29.90,SW,215,1.0,6.0,92,0.00,,,0.00,weatherlink.com 1.10,2013-05-11 15:10:00,
2013-05-11 11:25:00,47.9,46.0,29.89,WSW,257,2.0,5.0,91,0.00,,,0.00,weatherlink.com 1.10,2013-05-11 15:25:00,
2013-05-11 11:40:00,48.5,46.0,29.90,SSW,210,1.0,5.0,90,0.00,,,0.00,weatherlink.com 1.10,2013-05-11 15:40:00,
2013-05-11 11:55:00,48.6,46.0,29.90,WNW,294,0.0,4.0,89,0.00,,,0.00,weatherlink.com 1.10,2013-05-11 15:55:00,
2013-05-11 12:10:00,48.8,45.0,29.90,East,84,1.0,6.0,88,0.00,,,0.00,weatherlink.com 1.10,2013-05-11 16:10:00,
2013-05-11 12:25:00,49.4,46.0,29.89,SW,215,2.0,6.0,87,0.00,,,0.00,weatherlink.com 1.10,2013-05-11 16:25:00,
2013-05-11 12:40:00,49.2,46.0,29.89,South,186,2.0,7.0,88,0.00,,,0.00,weatherlink.com 1.10,2013-05-11 16:40:00,
2013-05-11 12:55:00,49.2,46.0,29.88,SW,228,4.0,5.0,88,0.00,,,0.00,weatherlink.com 1.10,2013-05-11 16:55:00,
2013-05-11 13:10:00,49.9,46.0,29.87,SE,125,3.0,7.0,87,0.00,,,0.00,weatherlink.com 1.10,2013-05-11 17:10:00,
2013-05-11 13:25:00,51.8,47.0,29.86,South,169,4.0,6.0,84,0.00,,,0.00,weatherlink.com 1.10,2013-05-11 17:25:00,
2013-05-11 13:40:00,53.1,47.0,29.85,North,354,2.0,7.0,81,0.00,,,0.00,weatherlink.com 1.10,2013-05-11 17:40:00,
2013-05-11 13:55:00,53.3,48.0,29.85,SSE,161,4.0,10.0,81,0.00,,,0.00,weatherlink.com 1.10,2013-05-11 17:55:00,
2013-05-11 14:11:00,52.9,48.0,29.84,South,174,2.0,7.0,82,0.00,,,0.00,weatherlink.com 1.10,2013-05-11 18:11:00,
2013-05-11 14:26:00,51.7,47.0,29.84,South,179,0.0,8.0,85,0.00,,,0.00,weatherlink.com 1.10,2013-05-11 18:26:00,
2013-05-11 14:41:00,51.5,48.0,29.84,ESE,108,2.0,8.0,87,0.00,,,0.00,weatherlink.com 1.10,2013-05-11 18:41:00,
2013-05-11 14:56:00,51.0,48.0,29.84,WNW,291,2.0,7.0,89,0.00,,,0.00,weatherlink.com 1.10,2013-05-11 18:56:00,
2013-05-11 15:11:00,50.7,49.0,29.84,West,274,2.0,6.0,92,0.01,,,0.01,weatherlink.com 1.10,2013-05-11 19:11:00,
2013-05-11 15:26:00,50.8,49.0,29.84,WNW,297,1.0,5.0,93,0.01,,,0.01,weatherlink.com 1.10,2013-05-11 19:26:00,
2013-05-11 15:41:00,46.9,44.0,29.88,NNW,340,1.0,12.0,90,0.01,,,0.01,weatherlink.com 1.10,2013-05-11 19:41:00,
2013-05-11 15:56:00,43.8,41.0,29.89,NW,308,6.0,14.0,90,0.01,,,0.01,weatherlink.com 1.10,2013-05-11 19:56:00,
2013-05-11 16:11:00,42.7,39.0,29.91,NNE,13,6.0,10.0,88,0.00,,,0.01,weatherlink.com 1.10,2013-05-11 20:11:00,
2013-05-11 16:26:00,41.9,39.0,29.91,WNW,284,1.0,11.0,90,0.00,,,0.01,weatherlink.com 1.10,2013-05-11 20:26:00,
2013-05-11 16:41:00,41.9,38.0,29.92,WNW,286,6.0,10.0,87,0.00,,,0.01,weatherlink.com 1.10,2013-05-11 20:41:00,
2013-05-11 16:56:00,42.9,39.0,29.92,NNW,338,2.0,9.0,85,0.00,,,0.01,weatherlink.com 1.10,2013-05-11 20:56:00,
2013-05-11 17:11:00,44.3,39.0,29.92,NNE,19,4.0,10.0,81,0.00,,,0.01,weatherlink.com 1.10,2013-05-11 21:11:00,
2013-05-11 17:26:00,45.5,38.0,29.93,West,274,3.0,10.0,76,0.00,,,0.01,weatherlink.com 1.10,2013-05-11 21:26:00,
2013-05-11 17:41:00,45.7,38.0,29.93,NNW,331,11.0,12.0,74,0.00,,,0.01,weatherlink.com 1.10,2013-05-11 21:41:00,
2013-05-11 17:56:00,45.9,37.0,29.94,NNW,340,1.0,12.0,71,0.00,,,0.01,weatherlink.com 1.10,2013-05-11 21:56:00,
2013-05-11 18:12:00,48.1,38.0,29.94,WNW,294,0.0,9.0,68,0.00,,,0.01,weatherlink.com 1.10,2013-05-11 22:12:00,
2013-05-11 18:26:00,48.0,37.0,29.95,NNW,346,5.0,9.0,66,0.00,,,0.01,weatherlink.com 1.10,2013-05-11 22:26:00,
2013-05-11 18:41:00,48.3,36.0,29.94,NW,308,3.0,9.0,63,0.00,,,0.01,weatherlink.com 1.10,2013-05-11 22:41:00,
2013-05-11 18:56:00,48.3,36.0,29.94,NNE,20,3.0,7.0,63,0.00,,,0.01,weatherlink.com 1.10,2013-05-11 22:56:00,
2013-05-11 19:11:00,47.9,35.0,29.94,WNW,302,1.0,8.0,62,0.00,,,0.01,weatherlink.com 1.10,2013-05-11 23:11:00,
2013-05-11 19:26:00,47.6,35.0,29.95,SW,217,1.0,7.0,61,0.00,,,0.01,weatherlink.com 1.10,2013-05-11 23:26:00,
2013-05-11 19:42:00,47.4,35.0,29.96,WNW,285,2.0,6.0,62,0.00,,,0.01,weatherlink.com 1.10,2013-05-11 23:42:00,
2013-05-11 19:57:00,46.9,34.0,29.96,NNW,347,2.0,8.0,62,0.00,,,0.01,weatherlink.com 1.10,2013-05-11 23:57:00,
2013-05-11 20:12:00,46.2,34.0,29.96,NW,304,1.0,5.0,63,0.00,,,0.01,weatherlink.com 1.10,2013-05-12 00:12:00,
2013-05-11 20:26:00,45.4,35.0,29.97,NW,319,3.0,4.0,66,0.00,,,0.01,weatherlink.com 1.10,2013-05-12 00:26:00,
2013-05-11 20:41:00,44.6,35.0,29.98,NNW,335,0.0,4.0,69,0.00,,,0.01,weatherlink.com 1.10,2013-05-12 00:41:00,
2013-05-11 20:56:00,43.9,35.0,29.98,North,360,1.0,7.0,71,0.00,,,0.01,weatherlink.com 1.10,2013-05-12 00:56:00,
2013-05-11 21:11:00,43.3,35.0,29.98,NW,305,2.0,6.0,73,0.00,,,0.01,weatherlink.com 1.10,2013-05-12 01:11:00,
2013-05-11 21:27:00,42.5,35.0,29.99,NNW,335,1.0,4.0,76,0.00,,,0.01,weatherlink.com 1.10,2013-05-12 01:27:00,
2013-05-11 21:42:00,41.7,35.0,29.99,NW,309,0.0,3.0,78,0.00,,,0.01,weatherlink.com 1.10,2013-05-12 01:42:00,
2013-05-11 21:57:00,41.0,35.0,29.99,North,355,0.0,4.0,80,0.00,,,0.01,weatherlink.com 1.10,2013-05-12 01:57:00,
2013-05-11 22:11:00,40.4,35.0,30.00,NNW,336,0.0,2.0,82,0.00,,,0.01,weatherlink.com 1.10,2013-05-12 02:11:00,
2013-05-11 22:26:00,39.9,35.0,30.00,NNW,346,0.0,3.0,83,0.00,,,0.01,weatherlink.com 1.10,2013-05-12 02:26:00,
2013-05-11 22:42:00,39.2,35.0,30.00,NNW,338,0.0,1.0,85,0.00,,,0.01,weatherlink.com 1.10,2013-05-12 02:42:00,
2013-05-11 22:57:00,38.3,35.0,30.00,NNW,338,0.0,0.0,87,0.00,,,0.01,weatherlink.com 1.10,2013-05-12 02:57:00,
2013-05-11 23:12:00,37.6,35.0,30.00,NNW,337,0.0,1.0,89,0.00,,,0.01,weatherlink.com 1.10,2013-05-12 03:12:00,
2013-05-11 23:27:00,36.9,34.0,30.00,NNE,17,0.0,0.0,90,0.00,,,0.01,weatherlink.com 1.10,2013-05-12 03:27:00,
2013-05-11 23:41:00,36.4,34.0,30.00,NNE,18,0.0,0.0,92,0.00,,,0.01,weatherlink.com 1.10,2013-05-12 03:41:00,
2013-05-11 23:56:00,35.9,34.0,30.00,NNE,18,0.0,0.0,93,0.00,,,0.01,weatherlink.com 1.10,2013-05-12 03:56:00,